Location: Unspecified
(48.5910°N, 12.0210°E)
Time: 15:58:51
(UTC+00:00)

Daily predictions for brighter satellites

Satellite Brightness Start Highest point End
(mag) Time Altitude Azimuth Time Altitude Azimuth Time Altitude Azimuth
CENTAUR R/B 4.5 19:23:11 10° NW 19:30:35 37° WSW 19:38:29 10° S
ATLAS 3B R/B 3.2 19:24:28 10° NW 19:31:26 59° NE 19:38:40 10° ESE
Cosmos 2279 Rocket 4.1 19:27:38 10° N 19:33:52 90° NW 19:40:03 10° S
ERS-2 2.1 19:32:44 10° NNE 19:36:23 70° ESE 19:40:01 10° S
Cosmos 2058 2.9 19:33:32 10° S 19:37:42 78° E 19:41:55 10° NNE
Meteor 2-2 Rocket 4.5 19:34:56 10° NNW 19:40:49 79° W 19:46:31 10° S
Cosmos 1953 Rocket 4.3 19:36:26 10° SSW 19:40:52 59° WNW 19:45:19 10° N
Cosmos 2151 4.2 19:37:54 10° SE 19:41:17 24° E 19:44:42 10° NE
CZ-2C R/B 4.4 19:39:47 10° NNE 19:43:57 34° E 19:48:02 10° SSE
Cosmos 1697 Rocket 3.1 19:38:52 10° NNW 19:44:30 66° WSW 19:50:06 10° SSE
Cosmos 44 Rocket 3.5 19:39:30 10° SSW 19:44:36 62° ESE 19:49:48 10° NE
ERS-1 Rocket 4.1 19:41:14 10° ESE 19:45:31 29° ENE 19:49:50 10° N
Spot 2 Rocket 4.1 19:46:39 10° SE 19:51:29 45° ENE 19:56:20 10° N
OBJECT-B 3.7 19:50:44 10° SW 19:52:40 15° W 19:54:36 10° NW
Cosmos 1833 Rocket 3.0 19:51:04 10° SW 19:56:43 74° WNW 20:02:23 10° NNE
Cosmos 2082 Rocket 2.2 19:51:14 10° S 19:56:45 60° ESE 20:02:20 10° NE
Cosmos 2278 3.8 19:51:05 10° NNW 19:56:46 73° ENE 20:02:12 11° SE
RESURS DK-1 2.6 19:53:16 10° S 19:57:16 50° ESE 20:01:19 10° NE
Cosmos 1842 Rocket 3.9 19:55:45 10° NNW 20:00:13 68° W 20:04:40 10° S
Cosmos 1076 Rocket 3.5 19:59:45 10° S 20:04:02 67° E 20:08:23 10° NNE
Nadezhda 4 Rocket 4.0 19:59:22 10° S 20:05:28 70° E 20:11:41 10° NNE
Cosmos 371 Rocket 3.3 20:02:30 10° NNW 20:07:20 72° ENE 20:11:35 13° SSE
GP-B 3.9 20:03:33 10° NNE 20:07:39 35° E 20:11:03 14° SSE
Cosmos 1538 Rocket 4.3 20:02:48 10° S 20:07:47 47° ESE 20:12:45 10° NNE
SPOT 5 3.3 20:04:49 13° SE 20:08:18 39° ENE 20:12:23 10° N
Cosmos 2333 Rocket 4.4 20:05:42 10° N 20:08:44 14° NNE 20:11:45 10° ENE
Cosmos 1933 3.9 20:05:25 10° N 20:09:19 43° ENE 20:12:25 15° SE
Cosmos 2360 Rocket 3.9 20:05:16 10° N 20:09:35 22° NE 20:13:54 10° E
USA 234 4.1 20:04:57 10° E 20:11:11 49° NNE 20:17:26 10° WNW
Cosmos 2098 Rocket 2.1 20:10:42 10° S 20:13:40 84° E 20:17:06 10° N
JB-3 4.5 20:11:53 10° NNE 20:16:01 61° E 20:20:04 10° S
Cosmos 1606 3.4 20:13:06 10° NNW 20:16:48 52° W 20:20:28 10° S
BREEZE-M DEB (TANK) 3.7 20:15:28 10° SW 20:19:15 56° SE 20:32:38 10° ENE
Terra 2.6 20:16:53 15° SE 20:20:25 39° ENE 20:24:51 10° N
USA 276 2.3 20:17:47 10° WNW 20:20:57 70° N 20:23:48 12° E
Gbstr 26 Del rocket 2.9 20:20:38 10° WNW 20:24:21 69° NNE 20:28:03 12° E
ISS -3.8 20:21:24 10° WNW 20:24:47 88° NNE 20:27:10 18° ESE
Cosmos 1812 4.3 20:25:45 10° NNE 20:28:49 22° ENE 20:30:40 16° ESE
COSMOS 2406 4.3 20:23:54 10° SW 20:29:24 49° NW 20:34:57 10° NNE
SPOT 1/Viking Rocket 4.0 20:24:28 10° S 20:29:36 62° WSW 20:34:48 10° NNW
Resurs 01 Rocket 3.2 20:27:18 10° SSW 20:31:16 32° W 20:35:17 10° NNW
Cosmos 1980 Rocket 2.7 20:25:55 10° NW 20:31:23 54° WSW 20:36:22 13° S
USA 245 4.3 20:30:33 10° S 20:35:57 63° WSW 20:40:26 10° NNW
Meteor 2-3 Rocket 3.8 20:30:25 10° S 20:35:59 65° E 20:41:39 10° NNE
Cosmos 2322 Rocket 2.8 20:34:47 10° NNW 20:40:15 47° NE 20:44:10 18° ESE
Cosmos 332 Rocket 3.8 20:38:29 10° NNW 20:43:24 89° WSW 20:46:42 21° SSE
Cosmos 1782 2.9 20:42:17 10° N 20:46:19 65° E 20:48:31 25° SSE
ERBS 4.4 20:45:35 10° W 20:47:36 15° SW 20:48:55 13° SSW
Cosmos 1633 4.4 20:49:28 10° SW 20:52:41 30° WNW 20:55:55 10° N
Cosmos 923 Rocket 4.2 20:50:15 16° S 20:54:23 53° ESE 20:59:36 10° NNE
ARIANE 5 R/B 3.1 20:54:46 17° S 20:58:04 57° W 21:02:29 10° NNW
CARTOSAT-1 4.4 20:56:35 15° SSW 20:59:57 44° W 21:04:07 10° NNW
Meteor 2-6 Rocket 4.5 20:55:24 10° N 21:00:44 52° ENE 21:03:41 25° SE
Cosmos 2056 Rocket 4.0 21:00:04 10° NNW 21:05:19 50° ENE 21:08:17 24° SE
Cosmos 2219 Rocket 3.9 21:01:08 10° N 21:05:36 23° NE 21:10:01 10° E
SL-16 R/B 2.2 21:00:58 10° NNW 21:06:41 88° ENE 21:10:00 26° SSE
ATLAS 2AS CENTAUR R/B 3.8 21:02:14 10° WSW 21:09:57 54° NW 21:17:26 10° NE
Cosmos 1271 Rocket 3.5 21:10:17 10° NNW 21:14:06 47° W 21:16:19 22° SSW
Cosmos 1515 Rocket 4.1 21:09:50 10° N 21:14:08 45° ENE 21:15:49 30° SE
CZ-4B DEB 4.1 21:13:34 46° S 21:14:25 84° WSW 21:17:35 10° NNW
Cosmos 2151 4.4 21:14:28 10° SW 21:18:23 35° WNW 21:22:20 10° N
USA 267 3.3 21:12:34 10° ENE 21:19:00 56° SE 21:25:24 10° SW
ATLAS 3B R/B 3.6 21:15:26 10° NW 21:22:01 41° WSW 21:26:36 20° S
ERS-1 Rocket 3.8 21:20:45 18° SSW 21:24:09 43° W 21:28:57 10° NNW
Cosmos 1809 Rocket 4.4 21:20:38 20° S 21:25:04 87° E 21:31:15 10° N
Cosmos 1371 Rocket 4.0 21:21:09 10° NNW 21:26:33 79° ENE 21:29:06 32° SSE
Cosmos 1766 Rocket 3.6 21:24:13 25° SSW 21:26:44 79° W 21:31:09 10° N
SL-27 R/B 3.6 21:27:13 29° E 21:27:13 29° E 21:30:07 10° NE
Cosmos 2084 4.4 21:29:08 28° ESE 21:29:08 28° ESE 21:32:06 10° ENE
Cosmos 2112 Rocket 4.0 21:26:07 26° S 21:29:09 68° ESE 21:34:25 10° NNE
Cosmos 1680 Rocket 3.4 21:27:07 22° SSW 21:30:39 80° ESE 21:35:56 10° NNE
ALOS 2 4.2 21:31:09 19° E 21:32:53 24° ENE 21:36:25 10° N
Cosmos 1328 Rocket 3.8 21:31:03 10° NNW 21:35:29 65° W 21:37:21 33° SSW
Meteor 1-10 Rocket 4.2 21:30:27 10° N 21:36:03 76° ENE 21:38:35 33° SSE
NOSS 2-1 (D) 4.2 21:38:36 26° E 21:38:36 26° E 21:40:30 10° NE
Cosmos 1151 Rocket 3.9 21:36:23 10° NNW 21:40:32 44° W 21:42:34 25° SSW
ATLAS 5 CENTAUR R/B 3.8 21:36:28 10° NNW 21:40:58 29° NNE 21:46:10 10° E
Cosmos 2082 Rocket 4.2 21:36:23 10° WSW 21:41:15 29° NW 21:46:09 10° NNE
Spot 4 4.3 21:40:25 33° ESE 21:42:14 50° ENE 21:46:54 10° N
H-2A R/B 3.6 21:41:15 10° N 21:45:26 71° WNW 21:47:22 31° SSW
SPOT 5 4.4 21:44:02 15° SW 21:46:34 24° W 21:50:07 10° NW
Meteor 2-21 Rocket 4.4 21:47:22 28° S 21:50:52 88° E 21:57:06 10° N
USA 234 3.2 21:49:36 24° ESE 21:53:54 90° NE 22:00:31 10° NW
BREEZE-M DEB (TANK) 1.7 21:49:00 10° WNW 21:53:57 77° SSW 21:54:06 74° SSE
Cosmos 2360 Rocket 2.1 21:48:41 10° NNW 21:54:21 87° WSW 21:56:38 38° SSE
Cosmos 2333 Rocket 2.7 21:48:52 10° NNW 21:54:24 52° NE 21:57:11 28° ESE
Cosmos 1833 4.4 21:53:31 36° SSE 21:55:32 54° ESE 22:01:10 10° NE
USA 276 3.4 21:54:03 10° W 21:56:02 30° WSW 21:56:02 30° WSW
Terra 3.3 21:55:47 18° SW 21:58:16 28° W 22:02:24 10° NW
Cosmos 1805 Rocket 4.3 21:59:00 36° ESE 21:59:36 37° E 22:03:43 10° NNE
COSMOS 2455 3.6 21:59:06 31° SE 22:00:01 32° ESE 22:05:16 10° NE
ISS -1.7 21:58:39 10° W 22:00:07 18° WSW 22:00:07 18° WSW
Cosmos 1812 4.0 22:01:10 10° NNW 22:04:39 32° W 22:05:44 27° SW
Cosmos 2285 Rocket 4.4 22:00:04 10° NNW 22:06:18 57° ENE 22:09:22 30° SE
Cosmos 2322 4.0 22:02:12 10° NNW 22:07:53 62° ENE 22:10:25 33° SE
Cosmos 1624 Rocket 4.3 22:02:58 10° NNW 22:08:02 54° WSW 22:09:46 37° SSW
Gbstr 26 Del rocket 3.6 22:07:24 10° WNW 22:10:33 35° SW 22:10:33 35° SW
Cosmos 2315 Rocket 4.0 22:04:43 10° N 22:11:03 78° E 22:13:44 37° SSE
Cosmos 1500 Rocket 3.4 22:10:11 53° S 22:11:11 85° E 22:15:38 10° N
COBE Rocket 3.7 22:11:54 48° S 22:13:10 76° WSW 22:17:51 10° NNW
Cosmos 1862 4.4 22:14:02 27° WSW 22:15:36 38° WNW 22:19:22 10° N
Cosmos 2297 Rocket 4.4 22:20:11 10° E 22:20:43 11° E 22:21:48 10° E
Cosmos 1420 Rocket 4.2 22:16:23 10° NNW 22:21:40 63° WSW 22:23:14 43° SSW
Cosmos 2237 Rocket 3.9 22:17:56 10° NNW 22:22:44 27° NE 22:27:13 11° ESE
Cosmos 2322 Rocket 3.3 22:19:09 10° NW 22:24:07 32° WSW 22:25:58 26° SW
Cosmos 2266 Rocket 4.2 22:26:51 30° SSW 22:29:57 66° WNW 22:36:09 10° N
Cosmos 1743 Rocket 3.8 22:28:48 45° SW 22:29:59 65° W 22:34:26 10° N
Cosmos 972 Rocket 4.0 22:31:33 47° S 22:33:06 73° ESE 22:38:10 10° NNE
NOSS 2-1 (E) 3.1 22:35:22 64° WNW 22:35:28 64° NW 22:38:57 10° NE
NOSS 3-1 (C) 4.0 22:28:10 10° NW 22:35:36 83° SW 22:40:11 31° SSE
Cosmos 2228 Rocket 3.2 22:31:53 10° NNW 22:36:15 66° W 22:36:59 55° SW
Cosmos 1452 Rocket 3.4 22:32:56 10° NNW 22:38:13 85° WSW 22:39:37 50° SSE
Cosmos 1500 4.2 22:44:26 34° E 22:44:26 34° E 22:47:46 10° NNE
Cosmos 1633 Rocket 3.7 22:44:59 40° ESE 22:45:18 41° E 22:49:25 10° NNE
Cosmos 1666 Rocket 3.8 22:46:14 50° ESE 22:46:37 51° E 22:50:57 10° NNE
Sich 1 2.9 22:46:18 67° S 22:46:53 87° E 22:51:16 10° N
BREEZE-M DEB (TANK) 4.3 22:35:48 10° SW 22:46:53 45° SSE 22:50:52 10° E
USA 229 DEB 3.9 22:40:48 10° NW 22:48:07 81° NE 22:52:43 27° SE
USA 229 3.9 22:40:54 10° NW 22:48:13 81° NE 22:52:51 27° SE
SL-16 R/B 4.1 22:46:37 10° WNW 22:50:00 16° W 22:51:51 14° WSW
Cosmos 2333 4.4 22:44:35 10° NW 22:50:05 57° WSW 22:51:27 45° SSW
Cosmos 2219 Rocket 2.1 22:44:35 10° NNW 22:50:12 79° WSW 22:51:47 49° SSE
Geosat 4.4 22:49:53 33° ESE 22:51:58 56° NE 22:56:54 10° NNW
COSMOS 2428 2.6 22:46:23 10° NNW 22:52:08 90° ENE 22:53:57 46° SSE
Cosmos 1602 3.6 22:56:10 86° ESE 22:56:12 87° E 23:00:05 10° N
USA 267 3.7 22:55:39 10° NE 23:02:06 64° NNW 23:08:33 10° WSW
COSMOS 2487 2.7 23:03:00 61° NNW 23:03:00 61° NNW 23:06:03 10° NNE
Cosmos 2084 4.5 23:05:36 22° W 23:07:49 42° NW 23:11:52 10° NNE
Cosmos 1110 Rocket 3.9 23:02:40 10° NNW 23:08:02 89° WSW 23:09:25 52° SSE
Cosmos 1862 Rocket 3.5 23:04:06 10° N 23:08:29 70° E 23:09:00 62° SE
NOSS 3-1 (A) 4.0 23:01:04 10° NW 23:08:31 84° SW 23:13:22 29° SSE
ALOS 2 3.2 23:08:33 41° WSW 23:09:00 42° W 23:13:11 10° NNW
Cosmos 1515 4.2 23:08:05 10° NNW 23:11:36 48° W 23:11:36 48° W
Nadezhda 1 Rocket 4.2 23:06:47 10° N 23:13:11 69° ENE 23:15:44 38° SSE
Cosmos 1331 Rocket 3.9 23:11:08 10° NNW 23:16:25 84° WSW 23:17:39 54° SSE
Cosmos 1707 Rocket 3.8 23:14:07 10° NNW 23:18:22 53° W 23:18:45 51° WSW
Cosmos 2219 4.4 23:20:31 26° ESE 23:21:38 28° ESE 23:26:25 10° NE
SL-16 R/B 4.3 23:18:25 10° ESE 23:23:15 25° NE 23:28:06 10° N
ATLAS 5 CENTAUR R/B 2.2 23:20:41 10° NW 23:26:12 87° SW 23:28:59 36° SE
Resurs 1-4 Rocket 4.2 23:24:03 10° NE 23:27:02 15° E 23:29:09 12° ESE
Cosmos 1378 4.2 23:27:28 10° N 23:30:55 36° ENE 23:31:16 35° E
APEX 4.3 23:30:52 48° S 23:32:19 64° ESE 23:38:44 10° NE
Cosmos 1340 Rocket 3.6 23:32:40 38° E 23:32:42 38° E 23:36:22 10° NNE
Cosmos 1666 2.7 23:37:08 74° E 23:37:08 74° E 23:40:59 10° NNE
USA 234 4.0 23:36:55 31° SW 23:37:26 32° SW 23:43:11 10° WNW
Cosmos 2360 Rocket 4.1 23:34:29 10° WNW 23:37:29 15° W 23:38:23 14° WSW
Cosmos 2333 Rocket 3.2 23:33:36 10° NW 23:38:24 29° WSW 23:39:10 28° WSW
Cosmos 1980 3.6 23:37:46 10° NNW 23:43:29 90° NNE 23:45:31 42° SSE
COSMOS 2455 3.3 23:42:13 25° WSW 23:45:40 56° NW 23:51:37 10° NNE
SAR-Lupe-2 4.3 23:45:35 10° N 23:49:01 43° WNW 23:49:08 43° WNW
NOSS 2-2 (E) 4.4 23:47:03 10° NW 23:52:22 86° NE 23:57:55 18° SE
Cosmos 1269 Rocket 4.1 23:52:14 49° S 23:53:31 67° ESE 23:58:46 10° NNE
